contact:dominique.lefevre@mio.osupytheas.fr, maurice.libes@osupytheas.fr, didier.mallarino@osupytheas.fr
Project:EMSO http://www.emso-fr.org/EMSO-France
Depth: 2436.0 m
Title:EMSO Ligure Ouest : Data MII capteur AQUADOPP
Date,Latitude,Longitude,X_East,Y_North,Z_Up,Amplitude_X,Amplitude_Y,Amplitude_Z,Batterie,SoundSpeed,Heading,Pitch,Roll,Pressure,TIS,Speed,Direction
, degrees North, degrees East, m.s-1, m.s-1,m.s-1, 1, 1, 1, Volt, m.s-1, degree, degree, degree, dbar, degree_C, m.s-1, degree
2022-06-26T00:04:02,42.805,6.029,0.004,0.008,-0.035,106.0,105.0,103.0,13.4,1505.2,324.4,-0.8,1.8,2470.903,13.28,0.008,26.6
2022-06-26T00:07:02,42.805,6.029,0.045,-0.005,0.0,105.0,104.0,103.0,13.4,1505.2,324.4,-0.7,1.8,2470.934,13.28,0.045,96.3
2022-06-26T00:10:03,42.805,6.029,0.034,-0.01,-0.005,107.0,104.0,102.0,13.4,1505.2,322.9,-0.8,1.8,2470.899,13.28,0.035,106.4
2022-06-26T00:13:03,42.805,6.029,0.038,0.001,0.029,104.0,104.0,102.0,13.4,1505.2,328.7,-0.7,1.8,2470.916,13.28,0.038,88.5
2022-06-26T00:16:03,42.805,6.029,0.025,-0.002,-0.005,105.0,105.0,102.0,13.4,1505.2,320.1,-0.8,1.8,2470.868,13.28,0.025,94.6
2022-06-26T00:19:03,42.805,6.029,0.028,-0.001,-0.021,105.0,105.0,102.0,13.4,1505.2,326.8,-0.8,1.8,2470.844,13.28,0.028,92.0
2022-06-26T00:22:02,42.805,6.029,0.028,0.01,0.006,104.0,105.0,103.0,13.4,1505.2,323.7,-0.8,1.8,2470.855,13.28,0.029,70.4
2022-06-26T00:25:03,42.805,6.029,0.032,-0.004,-0.008,105.0,105.0,102.0,13.3,1505.2,328.3,-0.8,1.8,2470.857,13.28,0.032,97.1
2022-06-26T00:28:03,42.805,6.029,0.047,-0.007,-0.006,105.0,103.0,103.0,13.4,1505.2,328.6,-0.7,1.8,2470.827,13.28,0.047,98.5
2022-06-26T00:31:03,42.805,6.029,0.011,-0.01,-0.019,105.0,105.0,102.0,13.4,1505.2,329.8,-0.7,1.8,2470.871,13.28,0.014,132.3
2022-06-26T00:34:03,42.805,6.029,0.022,-0.004,0.002,104.0,105.0,102.0,13.4,1505.2,331.0,-0.8,1.8,2470.863,13.28,0.022,100.3
2022-06-26T00:37:02,42.805,6.029,0.029,-0.016,-0.001,105.0,105.0,104.0,13.4,1505.2,323.0,-0.8,1.8,2470.903,13.28,0.033,118.9
2022-06-26T00:40:03,42.805,6.029,0.041,-0.025,0.0,106.0,105.0,104.0,13.3,1505.2,329.4,-0.8,1.8,2470.856,13.28,0.048,121.4
2022-06-26T00:43:03,42.805,6.029,0.004,-0.011,-0.012,106.0,105.0,103.0,13.4,1505.2,328.0,-0.8,1.8,2470.858,13.28,0.011,160.0
2022-06-26T00:46:03,42.805,6.029,0.022,0.013,-0.012,105.0,106.0,102.0,13.4,1505.2,328.0,-0.8,1.8,2470.872,13.28,0.025,59.4
2022-06-26T00:49:03,42.805,6.029,0.008,0.003,0.004,107.0,104.0,103.0,13.4,1505.2,325.1,-0.7,1.9,2470.851,13.28,0.008,69.4
2022-06-26T00:52:02,42.805,6.029,0.023,0.001,-0.019,105.0,104.0,104.0,13.4,1505.2,327.8,-0.7,1.8,2470.843,13.29,0.023,87.5
2022-06-26T00:55:03,42.805,6.029,0.016,-0.006,-0.001,106.0,105.0,102.0,13.4,1505.2,329.5,-0.8,1.9,2470.876,13.29,0.017,110.6
2022-06-26T00:58:03,42.805,6.029,0.022,0.016,-0.015,107.0,105.0,103.0,13.4,1505.2,325.5,-0.8,1.8,2470.895,13.29,0.027,54.0
2022-06-26T01:04:02,42.805,6.029,0.03,-0.024,-0.014,106.0,106.0,104.0,13.4,1505.2,330.1,-0.8,1.8,2470.907,13.28,0.038,128.7
2022-06-26T01:07:03,42.805,6.029,0.05,-0.023,0.002,106.0,107.0,104.0,13.4,1505.2,328.5,-0.8,1.8,2470.918,13.28,0.055,114.7
2022-06-26T01:10:03,42.805,6.029,0.002,-0.002,-0.018,108.0,106.0,104.0,13.4,1505.2,323.7,-0.8,1.8,2470.885,13.28,0.002,135.0
2022-06-26T01:13:03,42.805,6.029,0.018,0.005,-0.016,106.0,106.0,103.0,13.4,1505.2,323.9,-0.8,1.8,2470.882,13.28,0.018,74.5
2022-06-26T01:16:03,42.805,6.029,0.018,-0.012,-0.01,106.0,106.0,103.0,13.3,1505.2,325.1,-0.7,1.8,2470.927,13.28,0.021,123.7
2022-06-26T01:19:03,42.805,6.029,0.031,-0.011,-0.003,105.0,105.0,104.0,13.3,1505.2,325.0,-0.8,1.8,2470.89,13.28,0.032,109.5
2022-06-26T01:22:02,42.805,6.029,0.05,0.0,0.001,106.0,106.0,103.0,13.3,1505.2,325.5,-0.8,1.8,2470.885,13.28,0.05,90.0
2022-06-26T01:25:03,42.805,6.029,0.033,0.006,-0.006,107.0,107.0,103.0,13.4,1505.2,322.7,-0.7,1.8,2470.905,13.28,0.033,79.7
2022-06-26T01:28:03,42.805,6.029,0.054,-0.011,0.005,106.0,106.0,104.0,13.4,1505.2,327.8,-0.7,1.8,2470.879,13.28,0.055,101.5
2022-06-26T01:31:03,42.805,6.029,0.038,-0.008,0.002,106.0,106.0,103.0,13.4,1505.2,320.8,-0.7,1.8,2470.892,13.28,0.038,101.9
2022-06-26T01:34:03,42.805,6.029,0.03,-0.017,-0.026,107.0,105.0,103.0,13.4,1505.2,321.1,-0.7,1.8,2470.877,13.28,0.034,119.5
2022-06-26T01:37:03,42.805,6.029,0.014,-0.013,-0.018,107.0,106.0,103.0,13.4,1505.2,331.5,-0.8,1.8,2470.872,13.28,0.019,132.9
2022-06-26T01:40:03,42.805,6.029,0.038,-0.004,0.043,107.0,106.0,103.0,13.3,1505.2,327.3,-0.8,1.8,2470.846,13.28,0.038,96.0
2022-06-26T01:43:03,42.805,6.029,0.026,-0.007,-0.008,107.0,107.0,103.0,13.3,1505.2,322.1,-0.8,1.8,2470.881,13.28,0.026,105.1
2022-06-26T01:46:03,42.805,6.029,0.047,-0.006,-0.039,106.0,106.0,102.0,13.3,1505.2,325.8,-0.8,1.8,2470.869,13.28,0.047,97.3
2022-06-26T01:49:03,42.805,6.029,0.026,-0.007,0.012,107.0,106.0,103.0,13.3,1505.2,326.0,-0.7,1.8,2470.872,13.28,0.026,105.1
2022-06-26T01:52:03,42.805,6.029,0.022,-0.016,-0.033,106.0,108.0,103.0,13.4,1505.2,328.3,-0.8,1.8,2470.898,13.28,0.027,126.0
2022-06-26T01:55:03,42.805,6.029,0.028,-0.002,-0.03,106.0,107.0,103.0,13.3,1505.2,323.3,-0.7,1.8,2470.878,13.28,0.028,94.1
2022-06-26T01:58:03,42.805,6.029,0.037,-0.01,-0.008,107.0,105.0,103.0,13.4,1505.2,321.0,-0.7,1.8,2470.864,13.28,0.038,105.1
2022-06-26T02:04:02,42.805,6.029,0.019,-0.027,-0.049,106.0,105.0,103.0,13.4,1505.2,325.0,-0.8,1.8,2470.909,13.28,0.033,144.9
2022-06-26T02:07:03,42.805,6.029,0.025,-0.021,0.002,106.0,104.0,103.0,13.4,1505.2,322.9,-0.7,1.8,2470.936,13.28,0.032,130.0
2022-06-26T02:10:03,42.805,6.029,0.046,-0.012,-0.017,105.0,106.0,104.0,13.4,1505.2,322.4,-0.8,1.8,2470.921,13.28,0.047,104.6
2022-06-26T02:13:03,42.805,6.029,0.018,-0.008,-0.009,105.0,105.0,102.0,13.3,1505.2,324.3,-0.8,1.8,2470.923,13.28,0.019,114.0
2022-06-26T02:16:03,42.805,6.029,0.025,-0.01,0.0,106.0,106.0,103.0,13.4,1505.2,332.5,-0.8,1.8,2470.872,13.28,0.026,111.8
2022-06-26T02:19:03,42.805,6.029,0.036,-0.008,-0.011,105.0,105.0,103.0,13.4,1505.2,320.5,-0.8,1.9,2470.935,13.28,0.036,102.5
2022-06-26T02:22:03,42.805,6.029,0.019,-0.023,0.015,105.0,106.0,104.0,13.4,1505.2,328.9,-0.8,1.8,2470.885,13.28,0.029,140.4
2022-06-26T02:25:03,42.805,6.029,0.018,0.002,-0.007,106.0,106.0,102.0,13.4,1505.2,320.9,-0.7,1.8,2470.933,13.28,0.018,83.7
2022-06-26T02:28:03,42.805,6.029,0.034,-0.017,0.009,106.0,105.0,103.0,13.4,1505.2,325.9,-0.8,1.8,2470.844,13.28,0.038,116.6
2022-06-26T02:31:03,42.805,6.029,0.037,-0.008,-0.048,106.0,103.0,102.0,13.4,1505.2,327.4,-0.8,1.8,2470.826,13.28,0.037,102.2
2022-06-26T02:34:03,42.805,6.029,0.047,-0.013,-0.014,106.0,105.0,103.0,13.4,1505.2,324.7,-0.8,1.8,2470.874,13.28,0.048,105.5
2022-06-26T02:37:03,42.805,6.029,0.039,-0.027,-0.012,106.0,105.0,103.0,13.4,1505.2,331.6,-0.8,1.8,2470.855,13.28,0.047,124.7
2022-06-26T02:40:03,42.805,6.029,0.048,-0.013,0.05,106.0,104.0,102.0,13.4,1505.2,329.0,-0.8,1.8,2470.867,13.28,0.049,105.2
2022-06-26T02:43:03,42.805,6.029,0.031,-0.008,0.002,104.0,106.0,102.0,13.4,1505.2,329.8,-0.7,1.8,2470.889,13.28,0.032,104.5
2022-06-26T02:46:03,42.805,6.029,0.042,-0.031,-0.018,104.0,105.0,103.0,13.3,1505.2,328.4,-0.7,1.8,2470.88,13.28,0.052,126.4
2022-06-26T02:49:03,42.805,6.029,0.042,0.002,0.017,104.0,105.0,102.0,13.4,1505.2,329.3,-0.7,1.8,2470.894,13.28,0.042,87.3
2022-06-26T02:52:03,42.805,6.029,0.038,-0.006,-0.002,105.0,103.0,101.0,13.4,1505.2,325.0,-0.8,1.8,2470.887,13.28,0.038,99.0
2022-06-26T02:55:03,42.805,6.029,0.03,-0.017,0.006,104.0,104.0,102.0,13.4,1505.2,324.5,-0.8,1.9,2470.906,13.28,0.034,119.5
2022-06-26T02:58:03,42.805,6.029,0.024,-0.018,-0.008,103.0,105.0,102.0,13.4,1505.2,331.9,-0.8,1.8,2470.931,13.28,0.03,126.9
2022-06-26T03:04:02,42.805,6.029,0.048,-0.001,-0.008,104.0,105.0,102.0,13.4,1505.2,326.8,-0.8,1.8,2470.984,13.28,0.048,91.2
2022-06-26T03:07:03,42.805,6.029,0.028,-0.017,-0.008,105.0,104.0,102.0,13.3,1505.2,323.5,-0.8,1.8,2470.953,13.28,0.032,121.3
2022-06-26T03:10:03,42.805,6.029,0.063,-0.022,0.003,104.0,104.0,103.0,13.4,1505.2,326.0,-0.7,1.8,2470.937,13.28,0.066,109.2
2022-06-26T03:13:03,42.805,6.029,0.046,-0.019,-0.009,105.0,104.0,102.0,13.4,1505.2,328.2,-0.8,1.8,2470.903,13.28,0.049,112.4
2022-06-26T03:16:03,42.805,6.029,0.057,-0.023,0.014,106.0,104.0,102.0,13.4,1505.2,328.7,-0.7,1.8,2470.964,13.28,0.061,112.0
2022-06-26T03:19:03,42.805,6.029,0.048,-0.005,-0.025,106.0,104.0,103.0,13.4,1505.2,330.8,-0.7,1.9,2470.916,13.28,0.048,95.9
2022-06-26T03:22:03,42.805,6.029,0.035,0.0,-0.049,106.0,104.0,102.0,13.4,1505.2,319.8,-0.8,1.8,2470.925,13.28,0.035,90.0
2022-06-26T03:25:03,42.805,6.029,0.029,-0.01,-0.02,105.0,105.0,102.0,13.4,1505.2,325.7,-0.7,1.8,2470.933,13.28,0.03,109.0
2022-06-26T03:28:03,42.805,6.029,0.053,-0.001,0.008,106.0,104.0,102.0,13.4,1505.2,327.4,-0.7,1.8,2470.923,13.28,0.053,91.1
2022-06-26T03:31:03,42.805,6.029,0.055,-0.024,0.007,104.0,104.0,102.0,13.4,1505.2,332.0,-0.8,1.8,2470.944,13.28,0.06,113.6
2022-06-26T03:34:03,42.805,6.029,0.032,-0.018,0.004,105.0,105.0,102.0,13.4,1505.2,331.3,-0.8,1.8,2470.967,13.28,0.036,119.4
2022-06-26T03:37:03,42.805,6.029,0.05,-0.019,0.0,106.0,104.0,101.0,13.4,1505.2,330.4,-0.7,1.8,2470.923,13.28,0.053,110.8
2022-06-26T03:40:03,42.805,6.029,0.033,0.006,0.011,104.0,104.0,102.0,13.4,1505.2,326.3,-0.8,1.8,2470.915,13.28,0.033,79.7
2022-06-26T03:43:03,42.805,6.029,0.05,-0.017,-0.009,103.0,104.0,102.0,13.4,1505.2,330.1,-0.7,1.8,2470.953,13.28,0.052,108.8
2022-06-26T03:46:03,42.805,6.029,0.034,-0.024,-0.034,105.0,104.0,102.0,13.4,1505.2,332.4,-0.7,1.8,2470.952,13.28,0.041,125.2
2022-06-26T03:49:03,42.805,6.029,0.026,-0.025,-0.029,104.0,104.0,102.0,13.3,1505.2,325.6,-0.7,1.8,2470.945,13.28,0.036,133.9
2022-06-26T03:52:03,42.805,6.029,0.023,-0.016,0.0,106.0,104.0,102.0,13.4,1505.2,326.8,-0.7,1.8,2470.967,13.28,0.028,124.8
2022-06-26T03:55:03,42.805,6.029,0.039,-0.004,-0.019,104.0,104.0,102.0,13.4,1505.2,323.9,-0.8,1.8,2470.959,13.28,0.039,95.9
2022-06-26T03:58:03,42.805,6.029,0.03,-0.001,0.013,105.0,104.0,102.0,13.4,1505.2,325.2,-0.8,1.8,2470.922,13.28,0.03,91.9
2022-06-26T04:04:02,42.805,6.029,0.042,-0.02,-0.024,105.0,104.0,103.0,13.3,1505.2,331.8,-0.8,1.8,2470.985,13.28,0.046,115.5
2022-06-26T04:07:03,42.805,6.029,0.034,-0.006,-0.019,112.0,104.0,102.0,13.4,1505.2,319.7,-0.7,1.8,2470.96,13.28,0.034,100.0
2022-06-26T04:10:03,42.805,6.029,0.053,-0.011,-0.021,105.0,106.0,102.0,13.4,1505.2,326.4,-0.8,1.8,2470.982,13.28,0.054,101.7
2022-06-26T04:13:03,42.805,6.029,0.04,-0.016,-0.004,104.0,106.0,102.0,13.4,1505.2,327.1,-0.8,1.8,2470.996,13.28,0.043,111.8
2022-06-26T04:16:03,42.805,6.029,0.048,-0.04,-0.009,105.0,104.0,102.0,13.3,1505.2,323.5,-0.8,1.8,2470.994,13.28,0.062,129.8
2022-06-26T04:19:03,42.805,6.029,0.038,-0.029,0.006,104.0,104.0,102.0,13.3,1505.2,332.9,-0.7,1.8,2470.97,13.28,0.047,127.3
2022-06-26T04:22:03,42.805,6.029,0.043,-0.016,-0.007,104.0,104.0,101.0,13.3,1505.2,327.6,-0.8,1.8,2470.983,13.28,0.045,110.4
2022-06-26T04:25:03,42.805,6.029,0.04,0.005,0.024,105.0,104.0,101.0,13.4,1505.2,319.3,-0.8,1.8,2470.982,13.28,0.04,82.9
2022-06-26T04:28:03,42.805,6.029,0.024,-0.002,-0.009,105.0,104.0,102.0,13.4,1505.2,323.2,-0.7,1.8,2470.965,13.28,0.024,94.8
2022-06-26T04:31:03,42.805,6.029,0.046,-0.004,-0.019,105.0,104.0,102.0,13.4,1505.2,328.5,-0.8,1.8,2470.972,13.28,0.046,95.0
2022-06-26T04:34:03,42.805,6.029,0.034,-0.014,-0.015,104.0,104.0,103.0,13.3,1505.2,326.8,-0.7,1.8,2471.001,13.28,0.036,112.4
2022-06-26T04:37:03,42.805,6.029,0.034,-0.015,-0.013,104.0,104.0,101.0,13.4,1505.2,322.1,-0.8,1.8,2470.963,13.28,0.037,113.8
2022-06-26T04:40:03,42.805,6.029,0.027,-0.019,-0.013,105.0,104.0,102.0,13.4,1505.2,331.3,-0.7,1.8,2470.948,13.28,0.033,125.1
2022-06-26T04:43:03,42.805,6.029,0.032,-0.031,-0.017,106.0,102.0,103.0,13.4,1505.2,333.6,-0.7,1.8,2470.933,13.28,0.044,134.1
2022-06-26T04:46:03,42.805,6.029,0.021,-0.021,-0.009,105.0,104.0,101.0,13.3,1505.2,328.3,-0.8,1.8,2470.949,13.28,0.029,135.0
2022-06-26T04:49:03,42.805,6.029,0.055,-0.038,-0.057,103.0,104.0,102.0,13.3,1505.2,330.8,-0.8,1.8,2470.962,13.28,0.066,124.6
2022-06-26T04:52:03,42.805,6.029,0.03,-0.02,-0.034,104.0,104.0,102.0,13.4,1505.2,328.6,-0.8,1.8,2470.954,13.28,0.036,123.7
2022-06-26T04:55:03,42.805,6.029,0.031,-0.004,-0.007,104.0,103.0,102.0,13.3,1505.2,322.2,-0.8,1.8,2470.971,13.28,0.031,97.3
2022-06-26T04:58:03,42.805,6.029,0.028,-0.016,0.012,104.0,105.0,102.0,13.4,1505.2,323.6,-0.8,1.8,2470.993,13.28,0.032,119.7
2022-06-26T05:04:02,42.805,6.029,0.039,-0.002,-0.03,104.0,103.0,102.0,13.3,1505.2,329.2,-0.8,1.8,2471.03,13.28,0.039,92.9
2022-06-26T05:07:03,42.805,6.029,0.032,-0.037,-0.045,105.0,104.0,102.0,13.4,1505.2,326.1,-0.8,1.8,2471.034,13.28,0.048,139.1
2022-06-26T05:10:03,42.805,6.029,0.029,-0.02,-0.009,105.0,103.0,102.0,13.4,1505.2,324.7,-0.8,1.8,2470.971,13.28,0.035,124.6
2022-06-26T05:13:03,42.805,6.029,0.023,-0.007,-0.008,104.0,103.0,103.0,13.4,1505.2,320.7,-0.8,1.8,2470.97,13.28,0.024,106.9
2022-06-26T05:16:03,42.805,6.029,0.03,0.014,-0.013,106.0,104.0,101.0,13.3,1505.2,325.0,-0.8,1.8,2470.979,13.28,0.033,65.0
2022-06-26T05:19:03,42.805,6.029,0.03,-0.012,-0.004,107.0,104.0,102.0,13.4,1505.2,326.0,-0.8,1.8,2470.948,13.28,0.032,111.8
2022-06-26T05:22:03,42.805,6.029,0.028,-0.013,-0.008,106.0,104.0,102.0,13.4,1505.2,321.4,-0.8,1.8,2470.954,13.28,0.03,114.9
2022-06-26T05:25:03,42.805,6.029,0.013,-0.006,-0.008,103.0,106.0,102.0,13.4,1505.2,328.0,-0.8,1.8,2470.968,13.28,0.014,114.8
2022-06-26T05:28:03,42.805,6.029,0.034,-0.019,-0.025,104.0,103.0,102.0,13.4,1505.2,331.9,-0.8,1.8,2470.985,13.28,0.038,119.2
2022-06-26T05:31:03,42.805,6.029,0.036,-0.004,-0.034,105.0,104.0,102.0,13.4,1505.2,329.2,-0.8,1.8,2470.95,13.28,0.036,96.3
2022-06-26T05:34:03,42.805,6.029,0.021,0.0,0.031,105.0,104.0,102.0,13.4,1505.2,333.4,-0.8,1.8,2470.928,13.28,0.021,90.0
2022-06-26T05:37:03,42.805,6.029,0.028,-0.032,-0.009,104.0,104.0,102.0,13.4,1505.2,329.1,-0.8,1.8,2470.958,13.28,0.042,138.8
2022-06-26T05:40:03,42.805,6.029,0.026,-0.015,-0.027,104.0,105.0,102.0,13.3,1505.2,319.3,-0.8,1.8,2471.003,13.29,0.03,120.0
2022-06-26T05:43:03,42.805,6.029,0.015,-0.009,0.002,105.0,103.0,102.0,13.3,1505.2,328.4,-0.7,1.8,2470.945,13.29,0.017,121.0
2022-06-26T05:46:03,42.805,6.029,0.019,-0.002,-0.015,104.0,105.0,101.0,13.4,1505.2,322.4,-0.7,1.8,2471.018,13.29,0.019,96.0
2022-06-26T05:49:03,42.805,6.029,0.034,-0.031,-0.02,105.0,104.0,102.0,13.3,1505.2,320.1,-0.8,1.8,2470.979,13.28,0.046,132.4
2022-06-26T05:52:03,42.805,6.029,0.031,-0.002,-0.017,104.0,104.0,103.0,13.3,1505.2,324.0,-0.8,1.8,2471.006,13.28,0.031,93.7
2022-06-26T05:55:03,42.805,6.029,0.032,-0.027,0.003,105.0,104.0,102.0,13.3,1505.2,332.0,-0.8,1.8,2470.97,13.28,0.041,130.2
2022-06-26T05:58:03,42.805,6.029,0.018,0.005,-0.011,105.0,105.0,101.0,13.4,1505.2,321.1,-0.7,1.8,2470.957,13.28,0.018,74.5
2022-06-26T06:04:02,42.805,6.029,0.023,-0.005,-0.021,106.0,104.0,102.0,13.4,1505.2,327.6,-0.7,1.9,2471.024,13.28,0.023,102.3
2022-06-26T06:07:03,42.805,6.029,0.045,-0.001,0.018,107.0,104.0,102.0,13.4,1505.2,321.8,-0.8,1.8,2471.033,13.28,0.045,91.3
2022-06-26T06:10:03,42.805,6.029,0.042,-0.012,0.0,104.0,104.0,102.0,13.4,1505.2,325.2,-0.8,1.8,2470.981,13.28,0.043,105.9
2022-06-26T06:13:03,42.805,6.029,0.014,-0.005,-0.015,105.0,105.0,102.0,13.3,1505.2,327.8,-0.8,1.8,2470.999,13.28,0.014,109.6
2022-06-26T06:16:03,42.805,6.029,0.02,-0.009,-0.025,104.0,104.0,103.0,13.4,1505.2,323.3,-0.8,1.9,2470.993,13.28,0.021,114.2
2022-06-26T06:19:03,42.805,6.029,0.044,0.0,0.002,105.0,105.0,103.0,13.4,1505.2,322.9,-0.8,1.8,2470.969,13.28,0.044,90.0
2022-06-26T06:22:03,42.805,6.029,0.03,-0.011,-0.002,103.0,105.0,100.0,13.3,1505.2,319.2,-0.7,1.8,2471.02,13.28,0.031,110.1
2022-06-26T06:25:03,42.805,6.029,0.01,-0.001,-0.006,105.0,104.0,101.0,13.3,1505.2,328.5,-0.7,1.8,2470.941,13.28,0.01,95.7
2022-06-26T06:28:03,42.805,6.029,0.028,-0.004,-0.03,105.0,103.0,102.0,13.4,1505.2,326.1,-0.7,1.8,2470.914,13.28,0.028,98.1
2022-06-26T06:31:03,42.805,6.029,0.024,-0.026,0.0,106.0,103.0,102.0,13.3,1505.2,332.2,-0.8,1.8,2470.935,13.28,0.035,137.3
2022-06-26T06:34:03,42.805,6.029,0.021,-0.022,-0.017,105.0,104.0,103.0,13.4,1505.2,330.8,-0.8,1.8,2470.941,13.28,0.03,136.3
2022-06-26T06:37:03,42.805,6.029,0.02,-0.021,0.009,104.0,104.0,102.0,13.4,1505.2,326.9,-0.8,1.8,2470.953,13.28,0.028,136.4
2022-06-26T06:40:03,42.805,6.029,0.034,-0.014,0.004,104.0,104.0,102.0,13.3,1505.2,321.3,-0.7,1.8,2470.958,13.28,0.036,112.4
2022-06-26T06:43:03,42.805,6.029,0.034,-0.01,-0.01,104.0,104.0,103.0,13.4,1505.2,323.4,-0.8,1.8,2470.945,13.28,0.035,106.4
2022-06-26T06:46:03,42.805,6.029,0.037,-0.018,0.01,105.0,103.0,102.0,13.4,1505.2,331.1,-0.7,1.8,2470.845,13.28,0.041,115.9
2022-06-26T06:49:03,42.805,6.029,0.036,-0.005,-0.002,105.0,104.0,101.0,13.4,1505.2,332.0,-0.7,1.8,2470.92,13.28,0.036,97.9
2022-06-26T06:52:03,42.805,6.029,0.028,-0.023,-0.028,105.0,103.0,102.0,13.4,1505.2,327.7,-0.8,1.8,2470.908,13.29,0.036,129.4
2022-06-26T06:55:03,42.805,6.029,0.025,-0.005,-0.01,105.0,104.0,103.0,13.3,1505.2,323.0,-0.8,1.8,2470.944,13.29,0.025,101.3
2022-06-26T06:58:03,42.805,6.029,0.011,-0.002,0.014,104.0,105.0,101.0,13.3,1505.2,331.5,-0.8,1.9,2470.945,13.28,0.011,100.3
2022-06-26T07:04:03,42.805,6.029,0.022,-0.024,-0.015,105.0,105.0,102.0,13.4,1505.2,332.7,-0.8,1.8,2470.976,13.28,0.032,137.5
2022-06-26T07:07:03,42.805,6.029,-0.004,-0.007,-0.04,104.0,104.0,103.0,13.4,1505.2,321.7,-0.7,1.8,2470.942,13.28,0.008,209.7
2022-06-26T07:10:03,42.805,6.029,0.029,-0.021,-0.03,105.0,104.0,102.0,13.4,1505.2,331.7,-0.8,1.8,2470.939,13.28,0.035,125.9
2022-06-26T07:13:03,42.805,6.029,0.025,-0.016,-0.016,105.0,105.0,102.0,13.3,1505.2,329.7,-0.8,1.8,2470.936,13.28,0.029,122.6
2022-06-26T07:16:03,42.805,6.029,0.029,-0.002,-0.01,105.0,105.0,101.0,13.4,1505.2,326.8,-0.8,1.8,2470.929,13.28,0.029,93.9
2022-06-26T07:19:03,42.805,6.029,0.035,-0.019,0.006,104.0,103.0,102.0,13.4,1505.2,329.2,-0.8,1.9,2470.915,13.28,0.039,118.5
2022-06-26T07:22:03,42.805,6.029,0.029,-0.004,0.003,104.0,104.0,103.0,13.4,1505.2,323.6,-0.7,1.8,2470.935,13.28,0.029,97.8
2022-06-26T07:25:03,42.805,6.029,0.061,-0.016,-0.011,104.0,104.0,102.0,13.4,1505.2,327.3,-0.8,1.8,2470.897,13.28,0.063,104.7
2022-06-26T07:28:03,42.805,6.029,0.033,-0.019,-0.014,104.0,105.0,102.0,13.4,1505.2,322.2,-0.8,1.8,2470.924,13.28,0.038,119.9
2022-06-26T07:31:03,42.805,6.029,0.031,-0.029,-0.005,105.0,104.0,102.0,13.4,1505.2,328.7,-0.8,1.8,2470.947,13.28,0.042,133.1
2022-06-26T07:34:03,42.805,6.029,0.045,0.0,0.001,106.0,103.0,101.0,13.3,1505.2,323.8,-0.8,1.8,2470.875,13.29,0.045,90.0
2022-06-26T07:37:03,42.805,6.029,0.034,-0.012,-0.017,105.0,104.0,103.0,13.3,1505.2,324.2,-0.7,1.8,2470.924,13.28,0.036,109.4
2022-06-26T07:40:03,42.805,6.029,0.033,-0.018,-0.039,104.0,105.0,102.0,13.3,1505.2,325.3,-0.8,1.8,2470.93,13.28,0.037,118.6
2022-06-26T07:43:03,42.805,6.029,0.021,-0.016,-0.061,105.0,105.0,103.0,13.3,1505.2,333.8,-0.8,1.8,2470.904,13.28,0.026,127.3
2022-06-26T07:46:03,42.805,6.029,0.053,-0.004,0.003,106.0,105.0,101.0,13.3,1505.2,331.5,-0.8,1.8,2470.901,13.28,0.053,94.3
2022-06-26T07:49:03,42.805,6.029,-0.001,0.001,-0.025,106.0,104.0,102.0,13.3,1505.2,330.7,-0.7,1.8,2470.882,13.28,0.001,315.0
2022-06-26T07:52:03,42.805,6.029,0.027,-0.005,-0.052,105.0,104.0,103.0,13.3,1505.2,332.0,-0.8,1.8,2470.867,13.29,0.027,100.5
2022-06-26T07:55:03,42.805,6.029,0.035,-0.024,-0.005,105.0,103.0,103.0,13.4,1505.2,332.7,-0.8,1.8,2470.925,13.29,0.042,124.4
2022-06-26T07:58:03,42.805,6.029,0.025,0.0,0.021,104.0,105.0,103.0,13.4,1505.2,333.4,-0.8,1.8,2470.886,13.29,0.025,90.0
2022-06-26T08:04:03,42.805,6.029,0.009,0.0,-0.015,104.0,104.0,102.0,13.3,1505.2,326.7,-0.7,1.8,2470.913,13.28,0.009,90.0
2022-06-26T08:07:03,42.805,6.029,0.02,0.011,0.004,103.0,103.0,103.0,13.4,1505.2,321.9,-0.7,1.8,2470.921,13.28,0.022,61.2
2022-06-26T08:10:03,42.805,6.029,0.033,0.0,-0.004,105.0,104.0,102.0,13.4,1505.2,324.7,-0.7,1.9,2470.956,13.28,0.033,90.0
2022-06-26T08:13:03,42.805,6.029,0.013,0.0,0.007,105.0,105.0,102.0,13.4,1505.2,320.8,-0.8,1.8,2470.917,13.28,0.013,90.0
2022-06-26T08:16:03,42.805,6.029,0.013,-0.017,0.024,105.0,105.0,102.0,13.4,1505.2,329.3,-0.8,1.8,2470.906,13.28,0.021,142.6
2022-06-26T08:19:03,42.805,6.029,0.025,-0.009,-0.006,104.0,105.0,103.0,13.3,1505.2,324.7,-0.7,1.8,2470.889,13.28,0.026,109.8
2022-06-26T08:22:03,42.805,6.029,0.025,-0.003,-0.016,106.0,103.0,102.0,13.4,1505.2,328.7,-0.8,1.8,2470.928,13.28,0.025,96.8
2022-06-26T08:25:03,42.805,6.029,0.03,-0.026,-0.026,105.0,105.0,102.0,13.4,1505.2,330.4,-0.8,1.8,2470.894,13.28,0.039,130.9
2022-06-26T08:28:03,42.805,6.029,0.031,-0.009,0.025,104.0,105.0,103.0,13.4,1505.2,332.5,-0.8,1.8,2470.895,13.29,0.032,106.2
2022-06-26T08:31:03,42.805,6.029,0.041,-0.022,-0.032,105.0,105.0,103.0,13.4,1505.2,325.0,-0.7,1.8,2470.9,13.29,0.046,118.2
2022-06-26T08:34:03,42.805,6.029,0.005,-0.012,-0.012,105.0,104.0,102.0,13.3,1505.2,328.3,-0.7,1.8,2470.878,13.28,0.013,157.4
2022-06-26T08:37:03,42.805,6.029,0.012,-0.009,-0.002,103.0,104.0,102.0,13.4,1505.2,332.2,-0.8,1.8,2470.893,13.28,0.015,126.9
2022-06-26T08:40:03,42.805,6.029,0.023,-0.014,-0.006,103.0,103.0,102.0,13.4,1505.2,322.4,-0.8,1.8,2470.854,13.28,0.026,121.3
2022-06-26T08:43:03,42.805,6.029,0.022,-0.015,0.0,104.0,103.0,102.0,13.4,1505.2,324.1,-0.8,1.8,2470.862,13.28,0.026,124.3
2022-06-26T08:46:03,42.805,6.029,0.017,-0.018,-0.013,105.0,103.0,103.0,13.4,1505.2,320.5,-0.8,1.8,2470.831,13.29,0.024,136.6
2022-06-26T08:49:03,42.805,6.029,0.033,-0.009,-0.016,104.0,104.0,101.0,13.4,1505.2,329.6,-0.8,1.8,2470.874,13.29,0.034,105.3
2022-06-26T08:52:03,42.805,6.029,0.044,-0.008,-0.004,105.0,103.0,102.0,13.4,1505.2,326.1,-0.8,1.8,2470.885,13.28,0.044,100.3
2022-06-26T08:55:03,42.805,6.029,0.025,-0.015,-0.021,104.0,104.0,102.0,13.3,1505.2,333.4,-0.8,1.8,2470.841,13.29,0.029,121.0
2022-06-26T08:58:03,42.805,6.029,0.027,-0.017,-0.017,105.0,103.0,102.0,13.4,1505.2,320.5,-0.8,1.8,2470.845,13.28,0.031,122.2
2022-06-26T09:04:03,42.805,6.029,0.034,-0.02,-0.013,104.0,104.0,103.0,13.4,1505.2,331.2,-0.8,1.8,2470.866,13.28,0.039,120.5
2022-06-26T09:07:03,42.805,6.029,0.026,-0.002,0.017,104.0,104.0,102.0,13.3,1505.2,324.4,-0.8,1.9,2470.885,13.28,0.026,94.4
2022-06-26T09:10:03,42.805,6.029,0.023,-0.01,0.014,106.0,104.0,102.0,13.4,1505.2,324.6,-0.8,1.8,2470.878,13.28,0.025,113.5
2022-06-26T09:13:03,42.805,6.029,0.012,0.006,-0.021,104.0,104.0,103.0,13.3,1505.2,326.0,-0.8,1.8,2470.89,13.28,0.013,63.4
2022-06-26T09:16:03,42.805,6.029,0.055,0.006,-0.006,105.0,104.0,102.0,13.4,1505.2,329.4,-0.8,1.8,2470.877,13.28,0.055,83.8
2022-06-26T09:19:03,42.805,6.029,0.019,0.007,0.0,104.0,105.0,101.0,13.3,1505.2,319.7,-0.8,1.8,2470.852,13.28,0.02,69.8
2022-06-26T09:22:03,42.805,6.029,0.016,-0.015,-0.01,104.0,105.0,101.0,13.4,1505.2,331.5,-0.8,1.8,2470.891,13.28,0.021,133.1
2022-06-26T09:25:03,42.805,6.029,0.034,-0.003,-0.004,106.0,103.0,103.0,13.4,1505.2,320.2,-0.8,1.8,2470.87,13.28,0.034,95.0
2022-06-26T09:28:03,42.805,6.029,0.0,-0.006,-0.029,103.0,105.0,102.0,13.4,1505.2,325.8,-0.8,1.8,2470.842,13.28,0.006,180.0
2022-06-26T09:31:03,42.805,6.029,0.016,-0.02,0.003,105.0,104.0,102.0,13.4,1505.2,331.9,-0.7,1.8,2470.854,13.28,0.025,141.3
2022-06-26T09:34:03,42.805,6.029,0.026,0.004,0.0,104.0,104.0,102.0,13.4,1505.2,332.2,-0.7,1.8,2470.848,13.29,0.026,81.3
2022-06-26T09:37:03,42.805,6.029,-0.003,-0.005,-0.013,106.0,104.0,102.0,13.4,1505.2,323.0,-0.7,1.8,2470.829,13.28,0.005,211.0
2022-06-26T09:40:03,42.805,6.029,0.053,-0.019,-0.008,105.0,103.0,102.0,13.3,1505.2,325.9,-0.8,1.8,2470.847,13.28,0.056,109.7
2022-06-26T09:43:03,42.805,6.029,0.01,-0.021,-0.054,103.0,104.0,102.0,13.3,1505.2,323.4,-0.7,1.8,2470.865,13.29,0.023,154.5
2022-06-26T09:46:03,42.805,6.029,0.006,-0.011,-0.033,103.0,105.0,102.0,13.4,1505.2,328.2,-0.7,1.8,2470.832,13.29,0.012,151.4
2022-06-26T09:49:03,42.805,6.029,0.038,-0.011,0.022,107.0,104.0,101.0,13.4,1505.2,331.1,-0.8,1.8,2470.846,13.29,0.039,106.1
2022-06-26T09:52:03,42.805,6.029,0.045,-0.015,0.026,104.0,105.0,102.0,13.4,1505.2,330.5,-0.8,1.8,2470.826,13.28,0.047,108.4
2022-06-26T09:55:03,42.805,6.029,0.054,0.027,0.03,104.0,105.0,102.0,13.4,1505.2,326.0,-0.7,1.8,2470.878,13.28,0.06,63.4
2022-06-26T09:58:03,42.805,6.029,0.027,0.012,0.004,105.0,105.0,101.0,13.4,1505.2,323.7,-0.8,1.8,2470.832,13.29,0.029,66.0